Weather in Penç-i Pâyin Köyü

Tajikistan     37°12′47″N   68°34′48″E
temp.,
°C
wind,
m/s
gust,
m/s
humid.,
%
clouds,
%
prec.,
mm/h
press.,
hPa
HPBL,
m
11 april, sun
sun1123:00+21nne2226100 0.0 101513
02:00+18nne4535100 0.0 101589
05:00+16n56423 0.1 101675
08:00+18nne45390 0.0 1018200
11:00+23ne44320 0.0 1018942
14:00+26ne32270 0.0 10161706
17:00+27nne32200 0.0 10142424
20:00+23nne33310 0.0 101515
12 april, mon
mon1223:00+21nne33320 0.0 101512
02:00+18nne44410 0.0 101544
05:00+16nne45470 0.0 101653
08:00+18nne34426 0.0 1017181
11:00+24ne33295 0.0 1017642
14:00+28ne22235 0.0 10141397
17:00+28nne221960 0.0 10131801
20:00+24n3326100 0.0 101316
13 april, tue
tue1323:00+24n2226100 0.0 101318
02:00+21nne61132100 0.0 1014191
05:00+18nne9145433 0.0 1016438
08:00+19nne795299 0.0 1018464
11:00+22n554399 0.1 10181000
14:00+24ne65405 0.0 10171319
17:00+25ne44380 0.0 10161404
20:00+21ene345218 0.0 101775
14 april, wed
wed1423:00+18nne355855 0.0 1017105
02:00+17nne486178 0.0 1016163
05:00+15nne3458100 0.0 101662
08:00+18nne335149 0.0 1016193
11:00+24ne34365 0.0 1014707
14:00+28ne4526100 0.0 10111228
17:00+29nne5622100 0.0 10081357
20:00+25nw1133100 0.0 100811
15 april, thu
thu1523:00+24sw4738100 0.0 1009112
02:00+23sw4541100 0.0 101075
05:00+20ese81143100 0.1 1011236
08:00+21ese5746100 0.0 1012261
11:00+24ne323899 0.0 10131017
14:00+24wnw5436100 0.0 10121292
17:00+24ssw2237100 0.1 10121041
20:00+18ese4668100 0.0 1013199